Skip Page Navigation
NASA JPL Caltech
NASA Logo - Jet Propulsion Laboratory + View the NASA Portal
+ Center for Near-Earth Object Studies
JPL Home Earth Solar System Stars & Galaxies Technology
JPL Solar System Dynamics
BODIES ORBITS EPHEMERIDES TOOLS PHYSICAL DATA DISCOVERY FAQ SITE MAP
JPL Small-Body Database Browser
Search: [ help ]  
523889 (1996 VW10)
Classification: Main-belt Asteroid          SPK-ID: 2523889
Ephemeris | Orbit Diagram | Orbital Elements | Mission Design | Physical Parameters | Discovery Circumstances ]

[ show orbit diagram ]
Orbital Elements at Epoch 2459000.5 (2020-May-31.0) TDB
Reference: JPL 11 (heliocentric ecliptic J2000)
 Element Value Uncertainty (1-sigma)   Units 
e .2531143785653067 9.8567e-08  
a 2.635340648001234 2.7917e-08 au
q 1.968298037574509 2.5575e-07 au
i 13.08431829932187 1.662e-05 deg
node 10.27004563723333 4.8019e-05 deg
peri 51.07614818153481 6.5656e-05 deg
M 166.3556279318723 4.1444e-05 deg
tp 2458278.414598098983
(2018-Jun-08.91459810)
0.0001736 TDB
period 1562.620681464555
4.28
2.483e-05
6.798e-08
d
yr
n .2303822061682895 3.6608e-09 deg/d
Q 3.302383258427959 3.4984e-08 au
  Orbit Determination Parameters
   # obs. used (total)      56  
   data-arc span      8593 days (23.53 yr)  
   first obs. used      1996-11-04  
   last obs. used      2020-05-15  
   planetary ephem.      DE431  
   SB-pert. ephem.      SB431-N16  
   condition code      0  
   norm. resid. RMS      .54407  
   source      ORB  
   producer      Otto Matic  
   solution date      2020-Nov-11 22:41:25  

Additional Information
 Earth MOID = 1.00698 au 
 Jupiter MOID = 2.21841 au 
 T_jup = 3.316 
[ show covariance matrix ]

Ephemeris | Orbit Diagram | Orbital Elements | Mission Design | Physical Parameters | Discovery Circumstances ]

Physical Parameter Table
Parameter Symbol Value Units Sigma Reference Notes
absolute magnitude H 17.4   .39168 MPO461124 autocmod 2.6n
diameter diameter 2.061 km 0.085 urn:nasa:pds:neowise_diameters_albedos::2.0[mainbelt] (http://adsabs.harvard.edu/abs/2011ApJ...741...68M)  

523889 (1996 VW10)          Discovered 1996-Nov-04 by Spacewatch at Kitt Peak
Reference: Last Updated: 2019-05-29

Alternate Designations
 1996 VW10 = 2006 BX99 = 2010 DT61 
Ephemeris | Orbit Diagram | Orbital Elements | Mission Design | Physical Parameters | Discovery Circumstances ]
ABOUT SSD CREDITS/AWARDS PRIVACY/COPYRIGHT GLOSSARY LINKS
FirstGov 2020-Nov-26 13:54 UT
(server date/time)  
NASA Home Page
Site Manager:   Ryan S. Park
Webmaster  Alan B. Chamberlin